Погода в Паленсии

Испания     42°00′20″N   4°31′56″W
темп.,
°C
ветер,
м/с
пор.,
м/с
влажн.,
%
обл.,
%
осадки,
мм/ч
давл.,
гПа
погр.,
м
10 мая, пн
пн1023:00+7юз613844 0.3 1009563
02:00+6юз511870 0.3 1010430
05:00+4ююз37949 0.0 1011207
08:00+4ю27948 0.0 1012265
11:00+10юз676791 0.1 10111281
14:00+12юз6855100 0.6 10091626
17:00+12зюз57615 1.0 10071236
20:00+8зюз71183100 2.1 1010797
11 мая, вт
вт1123:00+6юз4118686 0.0 1012504
02:00+5з512835 0.0 1015466
05:00+3зюз410872 0.0 1017367
08:00+3зюз410872 0.0 1019353
11:00+8з77615 0.0 10191169
14:00+12з684397 0.1 10192315
17:00+13з784194 0.0 10172276
20:00+11зюз7855100 0.0 10181135
12 мая, ср
ср1223:00+8юз5116180 0.0 1019652
02:00+7юз41183100 0.4 10191124
05:00+7юз51291100 0.8 1017727
08:00+7юз51192100 1.0 1016869
11:00+11зюз9147192 0.4 10151609
14:00+14з91153100 0.8 10152133
17:00+13зюз7853100 0.1 10151809
20:00+12зсз5857100 0.1 1016708
13 мая, чт
чт1323:00+8зсз357071 0.0 1019148
02:00+5з348169 0.0 1020117
05:00+4юз2387100 0.0 101969
08:00+4ююз1285100 0.0 1018113
11:00+10зюз6865100 0.0 10151015
14:00+7юз41194100 4.4 1014818
17:00+9зюз51393100 1.5 10121164
20:00+9зюз61393100 1.9 1011950
14 мая, пт
пт1423:00+9зюз6119249 1.1 1011479
02:00+8з6139399 1.4 1012547
05:00+5зсз512895 0.1 1014296
08:00+4сз29888 0.1 1017339
11:00+10ссз56615 0.0 10171047
14:00+14сз56445 0.0 10161813
17:00+15сз56385 0.0 10162111
20:00+13с5753100 0.0 1018590